Regional Weather Roundup
Issued by NWS

Home | Current Version | Previous Version | Text Only | Print | Product List | Glossary On
Versions: 1 2 3 4 5 6 7 8 9 10 11 12 13 14 15 16 17 18 19 20 21 22 23 24 25 26 27 28 29 30 31 32 33 34 35 36 37 38 39 40 41 42 43 44 45 46 47 48 49 50
000
ASUS43 KMPX 270901
RWRMN
WEATHER ROUNDUP FOR MINNESOTA
NATIONAL WEATHER SERVICE TWIN CITIES/CHANHASSEN MN
400 AM CDT FRI MAR 27 2015


NOTE: "FAIR" INDICATES FEW OR NO CLOUDS BELOW 12,000 FEET WITH NO
SIGNIFICANT WEATHER AND/OR OBSTRUCTIONS TO VISIBILITY. N/A MEANS
CURRENT SKY AND/OR WEATHER CONDITIONS ARE NOT AVAILABLE.

MNZ060>063-068>070-271000-
   Twin Cities Metro

CITY           SKY/WX    TMP DP  RH WIND       PRES   REMARKS
TWIN CITIES    CLEAR     21   3  45 N7        30.26R WCI  12
ST PAUL        CLEAR     21   4  47 N7        30.27R WCI  12
CRYSTAL        CLEAR     20   5  52 N6        30.25R WCI  12
BLAINE         CLEAR     19   7  58 N3        30.25S
LAKEVILLE      CLEAR     19   5  53 N5        30.24R WCI  13
EDEN PRAIRIE   CLEAR     21   5  50 N6        30.24R WCI  13
SOUTH ST PAUL  CLEAR     23   5  46 N5        30.25S WCI  16
LAKE ELMO      FAIR      21   7  53 N3        30.25R
$$
MNZ001>005-007-008-013>017-022>024-027-028-271000-
   Northwest Minnesota

CITY           SKY/WX    TMP DP  RH WIND       PRES   REMARKS
BEMIDJI        CLEAR      7   1  78 CALM      30.24S
HALLOCK        CLEAR     12   9  85 CALM      30.28F
ROSEAU         CLEAR     12   9  85 CALM      30.28R
WARROAD        CLEAR     12   9  85 CALM      30.27R
THIEF RVR FALL CLEAR     16  10  79 CALM      30.27S
CROOKSTON      CLEAR     14  10  85 CALM      30.30S
FOSSTON        CLEAR      7   3  85 CALM      30.27R
DETROIT LAKES  CLEAR     14  12  92 CALM      30.26S
MOORHEAD       CLEAR     16  12  86 CALM      30.30R
PARK RAPIDS    CLEAR     10   1  67 W3        30.23F
MAHNOMEN       FAIR      12  10  89 CALM      30.26R
$$
MNZ006-009>011-018-025>026-271000-
   North Central Minnesota

CITY           SKY/WX    TMP DP  RH WIND       PRES   REMARKS
BAUDETTE       CLEAR      9   4  80 CALM      30.25F
FLAG ISLAND    CLEAR     10   7  85 CALM      30.26R
INTL FALLS     CLEAR      7   3  84 CALM      30.25F
WASKISH        CLEAR      7   5  92 CALM      30.25F
BIG FORK       CLEAR      7   3  85 CALM      30.25S
LONGVILLE      CLEAR      9   5  85 CALM      30.25S
GRAND RAPIDS   CLEAR     10   1  67 CALM      30.24S
ORR            CLEAR      5   1  85 CALM      30.22S
COOK           CLEAR      3   1  92 CALM      30.24S
WALKER         FAIR      10   4  77 CALM      30.24S
$$
MNZ012-019>021-037-271000-
   Northeast Minnesota

CITY           SKY/WX    TMP DP  RH WIND       PRES   REMARKS
DULUTH         FAIR      13   2  61 N5        30.21S WCI   5
ELY            CLEAR      3   0  85 CALM      30.22S
HIBBING        CLEAR      4  -1  80 CALM      30.23F
EVELETH        CLEAR     10   3  72 CALM      30.24S
DULUTH HARBOR  CLEAR     21   9  58 N15       30.28S WCI   8
TWO HARBORS    CLEAR     16   7  67 N3        30.22S
SILVER BAY     CLEAR     12   3  67 NW5       30.21F WCI   4
GRAND MARAIS     N/A     12   2  64 N5        30.27S WCI   4
G MARAIS ARPRT CLEAR      0  -6  78 N6        30.16F WCI -12
$$
MNZ029>031-032-039>041-046>048-054>057-064-271000-
   West Central Minnesota

CITY           SKY/WX    TMP DP  RH WIND       PRES   REMARKS
FERGUS FALLS   CLEAR     16   9  73 CALM      30.30S
WHEATON        CLEAR     16  10  79 CALM      30.30S
MORRIS         CLEAR     14  10  85 NW3       30.26S
ALEXANDRIA     CLEAR     16   8  71 NE6       30.24F WCI   7
ELBOW LAKE     FAIR      14  11  87 CALM      30.26S
WADENA         CLEAR      9   3  78 CALM      30.24F
GLENWOOD       CLEAR     16   7  67 N6        30.24F WCI   7
APPLETON       CLEAR     16  14  93 N3        30.27F
BENSON         CLEAR     16  12  86 N3        30.26F
ORTONVILLE     CLEAR     18  10  73 NW5       30.27F WCI  11
MADISON        CLEAR     19  14  79 CALM      30.28S
WILLMAR        FAIR      18   9  68 N7        30.27S WCI   8
$$
MNZ033>034-036-042>043-049>051-058-059-271000-
   Central Minnesota

CITY           SKY/WX    TMP DP  RH WIND       PRES   REMARKS
ST CLOUD       CLEAR     16   7  67 CALM      30.25F
SAUK CENTRE    FAIR      15   4  61 CALM      30.25F
PAYNESVILLE    CLEAR     11   4  73 CALM      30.26S
AITKIN         CLEAR     12   3  67 CALM      30.24S
PINE RIVER     CLEAR     10   3  72 CALM      30.27F
BRAINERD       CLEAR     12   5  73 CALM      30.25F
STAPLES        CLEAR     12   1  62 CALM      30.24F
LONG PRAIRIE   FAIR      14   5  67 CALM      30.25F
LITTLE FALLS   CLEAR     12   1  62 CALM      30.26S
LITCHFIELD     CLEAR     16   9  73 CALM      30.26S
MAPLE LAKE     CLEAR     19  11  70 CALM      30.26S
$$
MNZ037-044-045-052-053-271000-
   East Central Minnesota

CITY           SKY/WX    TMP DP  RH WIND       PRES   REMARKS
PRINCETON      CLEAR     18   5  57 CALM      30.25F
MORA           CLEAR     18   3  53 CALM      30.27S
CAMBRIDGE      CLEAR     19   5  53 CALM      30.24S
RUSH CITY      CLEAR     16   4  59 CALM      30.26S
MOOSE LAKE     CLEAR     14   1  57 CALM      30.24S
HINCKLEY       FAIR      18   3  53 N3        30.25S
CLOQUET        CLEAR     12   1  62 CALM      30.22F
MCGREGOR       CLEAR     14   7  73 N3        30.25F
$$
MNZ071>073-080-081-089-090-097-098-271000-
   Southwest Minnesota

CITY           SKY/WX    TMP DP  RH WIND       PRES   REMARKS
MONTEVIDEO     CLEAR     18  12  79 N3        30.28F
GRANITE FALLS  CLEAR     18  13  80 N6        30.28F WCI  10
CANBY          CLEAR     16  12  86 NW6       30.28F WCI   7
MARSHALL       CLEAR     16   9  73 NW8       30.26F WCI   5
REDWOOD FALLS  FAIR      21   9  59 N6        30.26F WCI  13
OLIVIA         CLEAR     19  12  73 N8        30.25F WCI   9
PIPESTONE      CLEAR     18  12  79 N3        30.23F
WINDOM         CLEAR     18  12  79 NW8       30.23F WCI   7
WORTHINGTON    CLEAR     16   9  73 N8        30.23F WCI   5
JACKSON        CLEAR     19  14  79 NW8       30.22F WCI   9
TRACY          CLEAR     19  14  83 NW7       30.25F WCI   9
SLAYTON        CLEAR     18  12  77 CALM      30.24F
$$
MNZ065>067-074>077-082>085-091>093-271000-
   South Central Minnesota

CITY           SKY/WX    TMP DP  RH WIND       PRES   REMARKS
MANKATO        CLEAR     18   9  68 N8        30.23S WCI   7
NEW ULM        CLEAR     19  10  68 N8        30.25S WCI   9
ST JAMES       CLEAR     21  16  79 NW8       30.25S WCI  12
FAIRMONT       CLEAR     21  12  68 NW7       30.22S WCI  13
GLENCOE        CLEAR     18  11  73 N3        30.24F
FARIBAULT      CLEAR     12   7  79 CALM      30.23R
OWATONNA       CLEAR     10   7  85 CALM      30.22R
WASECA         CLEAR     19  12  73 N7        30.23S WCI  10
ALBERT LEA     CLEAR     19  14  79 N6        30.20S WCI  11
$$
MNZ078>079-086>088-094>096-271000-
   Southeast Minnesota

CITY           SKY/WX    TMP DP  RH WIND       PRES   REMARKS
ROCHESTER      CLEAR     16   6  65 N7        30.19R WCI   6
RED WING       CLEAR     19   7  58 N5        30.23R WCI  13
STANTON        CLEAR     14   8  76 CALM      30.22S
DODGE CENTER   PTCLDY    18   7  62 N5        30.19S WCI  11
WINONA         CLEAR     25  10  54 CALM      30.23S
AUSTIN         CLEAR     18   9  68 CALM      30.19S
PRESTON        CLEAR     16   7  66 N6        30.18S WCI   8
$$
ABBREVIATIONS USED IN REMARKS
   TC - TEMPERATURES IN CELSIUS
  WCI - WIND CHILL INDEX
   HX - HEAT INDEX
  VSB - VISIBILITY
$$


USA.gov is the U.S. government's official web portal to all federal, state and local government web resources and services.